Weather History for KRDK - September, 2013

Change the Weather History Date:

Wednesday, September 18, 2013

  Actual Average Record
Temperature  
Mean Temperature 76 °F -  
Max Temperature 87 °F 77 °F 96 °F (2000)
Min Temperature 66 °F 53 °F 30 °F (1981)
Cooling Degree Days 12    
Growing Degree Days 26 (Base 50)    
Moisture  
Dew Point 63 °F    
Average Humidity 64    
Maximum Humidity 83    
Minimum Humidity 43    
Precipitation  
Precipitation 0.00 in - - ()
Sea Level Pressure  
Sea Level Pressure 29.82 in    
Wind  
Wind Speed 13 mph (South)    
Max Wind Speed 23 mph    
Max Gust Speed 30 mph    
Visibility 8 miles    
Events      
Averages and records for this station are not official NWS values.
T = Trace of Precipitation, MM = Missing Value Source: NWS Daily Summary

Daily Weather History Graph

Daily Weather History Graph

Search for Another Location

Airport or City:

Trip Planner

Search our weather history database for the weather conditions in past years. The results will help you decide how hot, cold, wet, or windy it might be!

Date:

Astronomy

Sep. 18, 2013 Rise Set
Actual Time 7:04 AM CDT 7:24 PM CDT
Civil Twilight 6:37 AM CDT 7:52 PM CDT
Nautical Twilight 6:04 AM CDT 8:24 PM CDT
Astronomical Twilight 5:31 AM CDT 8:57 PM CDT
Moon 6:48 PM CDT (9/18) 6:08 AM CDT (9/18)
Length of Visible Light 13h 14m
Length of Day
12h 19m
Waxing Gibbous, 99% of the Moon is Illuminated
Sep 18
Waxing Gibbous
Sep 19
Full
Sep 26
Last Quarter
Oct 4
New
Oct 11
First Quarter

Hourly Weather History & Observations

Time (CDT) Temp. Heat Index Dew Point Humidity Pressure Visibility Wind Dir Wind Speed Gust Speed Precip Events Conditions
12:15 AM 69.8 °F - 60.8 °F 73% 29.94 in 7.0 mi South 13.8 mph 21.9 mph N/A   Overcast
12:35 AM 69.8 °F - 60.8 °F 73% 29.94 in 7.0 mi South 12.7 mph - N/A   Overcast
12:55 AM 69.8 °F - 60.8 °F 73% 29.94 in 3.0 mi SSE 13.8 mph - N/A   Haze
1:15 AM 68.0 °F - 60.8 °F 78% 29.93 in 7.0 mi South 12.7 mph 17.3 mph N/A   Overcast
1:35 AM 68.0 °F - 60.8 °F 78% 29.93 in 7.0 mi SSE 11.5 mph 17.3 mph N/A   Overcast
1:55 AM 68.0 °F - 60.8 °F 78% 29.92 in 7.0 mi South 11.5 mph 16.1 mph N/A   Overcast
2:15 AM 68.0 °F - 60.8 °F 78% 29.92 in 7.0 mi South 11.5 mph 18.4 mph N/A   Overcast
2:35 AM 68.0 °F - 60.8 °F 78% 29.91 in 5.0 mi South 12.7 mph 16.1 mph N/A   Haze
2:55 AM 66.2 °F - 60.8 °F 83% 29.90 in 5.0 mi South 15.0 mph - N/A   Haze
3:15 AM 66.2 °F - 60.8 °F 83% 29.89 in 5.0 mi South 10.4 mph 17.3 mph N/A   Haze
3:35 AM 66.2 °F - 60.8 °F 83% 29.89 in 5.0 mi South 9.2 mph - N/A   Haze
3:55 AM 66.2 °F - 60.8 °F 83% 29.89 in 5.0 mi SSE 9.2 mph - N/A   Haze
4:15 AM 66.2 °F - 60.8 °F 83% 29.88 in 5.0 mi South 10.4 mph - N/A   Haze
4:35 AM 66.2 °F - 60.8 °F 83% 29.88 in 5.0 mi SSE 9.2 mph - N/A   Haze
4:55 AM 66.2 °F - 60.8 °F 83% 29.87 in 5.0 mi South 6.9 mph - N/A   Haze
5:15 AM 66.2 °F - 60.8 °F 83% 29.87 in 5.0 mi South 10.4 mph - N/A   Haze
5:35 AM 66.2 °F - 60.8 °F 83% 29.87 in 5.0 mi South 8.1 mph - N/A   Haze
5:55 AM 66.2 °F - 60.8 °F 83% 29.87 in 5.0 mi South 11.5 mph - N/A   Haze
6:15 AM 66.2 °F - 60.8 °F 83% 29.87 in 5.0 mi South 9.2 mph - N/A   Haze
6:35 AM 66.2 °F - 60.8 °F 83% 29.87 in 5.0 mi South 6.9 mph - N/A   Haze
6:55 AM 66.2 °F - 60.8 °F 83% 29.87 in 5.0 mi South 8.1 mph - N/A   Haze
7:15 AM 66.2 °F - 60.8 °F 83% 29.87 in 5.0 mi South 9.2 mph - N/A   Haze
7:35 AM 66.2 °F - 60.8 °F 83% 29.87 in 4.0 mi South 6.9 mph - N/A   Haze
7:55 AM 68.0 °F - 60.8 °F 78% 29.87 in 5.0 mi South 10.4 mph - N/A   Haze
8:15 AM 68.0 °F - 62.6 °F 83% 29.87 in 7.0 mi South 10.4 mph - N/A   Clear
8:35 AM 69.8 °F - 62.6 °F 78% 29.87 in 7.0 mi South 11.5 mph 17.3 mph N/A   Clear
8:55 AM 71.6 °F - 62.6 °F 73% 29.86 in 7.0 mi South 13.8 mph 19.6 mph N/A   Clear
9:15 AM 73.4 °F - 64.4 °F 73% 29.86 in 10.0 mi South 11.5 mph - N/A   Clear
9:35 AM 73.4 °F - 64.4 °F 73% 29.86 in 10.0 mi South 12.7 mph 19.6 mph N/A   Clear
9:55 AM 75.2 °F - 64.4 °F 69% 29.86 in 10.0 mi South 11.5 mph - N/A   Clear
10:15 AM 75.2 °F - 64.4 °F 69% 29.86 in 10.0 mi South 13.8 mph 21.9 mph N/A   Clear
10:35 AM 77.0 °F - 64.4 °F 65% 29.86 in 10.0 mi South 16.1 mph 21.9 mph N/A   Scattered Clouds
10:55 AM 78.8 °F - 66.2 °F 65% 29.85 in 10.0 mi South 11.5 mph 23.0 mph N/A   Clear
11:15 AM 80.6 °F 82.7 °F 66.2 °F 61% 29.85 in 10.0 mi SSW 12.7 mph 19.6 mph N/A   Clear
11:35 AM 80.6 °F 82.7 °F 66.2 °F 61% 29.84 in 10.0 mi South 16.1 mph 19.6 mph N/A   Clear
11:55 AM 80.6 °F 82.7 °F 66.2 °F 61% 29.83 in 10.0 mi South 15.0 mph 19.6 mph N/A   Clear
12:15 PM 82.4 °F 83.9 °F 64.4 °F 54% 29.83 in 10.0 mi South 18.4 mph 24.2 mph N/A   Clear
12:35 PM 84.2 °F 85.6 °F 64.4 °F 51% 29.82 in 10.0 mi South 16.1 mph 25.3 mph N/A   Clear
12:55 PM 84.2 °F 86.6 °F 66.2 °F 55% 29.80 in 10.0 mi South 15.0 mph 20.7 mph N/A   Clear
1:15 PM 84.2 °F 86.6 °F 66.2 °F 55% 29.79 in 10.0 mi South 16.1 mph 20.7 mph N/A   Clear
1:35 PM 86.0 °F 87.3 °F 64.4 °F 48% 29.78 in 10.0 mi South 18.4 mph 21.9 mph N/A   Clear
1:55 PM 87.8 °F 89.4 °F 64.4 °F 46% 29.78 in 10.0 mi South 18.4 mph 24.2 mph N/A   Clear
2:15 PM 87.8 °F 89.4 °F 64.4 °F 46% 29.77 in 10.0 mi South 18.4 mph 23.0 mph N/A   Clear
2:35 PM 87.8 °F 88.5 °F 62.6 °F 43% 29.76 in 10.0 mi South 20.7 mph 25.3 mph N/A   Clear
2:55 PM 87.8 °F 89.4 °F 64.4 °F 46% 29.75 in 10.0 mi South 15.0 mph 25.3 mph N/A   Clear
3:15 PM 87.8 °F 88.5 °F 62.6 °F 43% 29.75 in 10.0 mi South 23.0 mph 27.6 mph N/A   Scattered Clouds
3:35 PM 87.8 °F 88.5 °F 62.6 °F 43% 29.75 in 10.0 mi South 21.9 mph 28.8 mph N/A   Clear
3:55 PM 87.8 °F 88.5 °F 62.6 °F 43% 29.75 in 10.0 mi South 21.9 mph 27.6 mph N/A   Scattered Clouds
4:15 PM 87.8 °F 88.5 °F 62.6 °F 43% 29.75 in 10.0 mi South 15.0 mph 29.9 mph N/A   Scattered Clouds
4:35 PM 87.8 °F 88.5 °F 62.6 °F 43% 29.74 in 10.0 mi South 17.3 mph 21.9 mph N/A   Scattered Clouds
4:55 PM 87.8 °F 88.5 °F 62.6 °F 43% 29.74 in 10.0 mi South 19.6 mph 26.5 mph N/A   Clear
5:15 PM 87.8 °F 88.5 °F 62.6 °F 43% 29.73 in 10.0 mi South 19.6 mph 23.0 mph N/A   Scattered Clouds
5:35 PM 87.8 °F 88.5 °F 62.6 °F 43% 29.73 in 10.0 mi South 16.1 mph 26.5 mph N/A   Clear
5:55 PM 87.8 °F 88.5 °F 62.6 °F 43% 29.74 in 10.0 mi South 18.4 mph 24.2 mph N/A   Scattered Clouds
6:15 PM 86.0 °F 86.6 °F 62.6 °F 45% 29.74 in 10.0 mi South 12.7 mph 17.3 mph N/A   Overcast
6:35 PM 86.0 °F 86.6 °F 62.6 °F 45% 29.74 in 10.0 mi South 12.7 mph 18.4 mph N/A   Overcast
6:55 PM 84.2 °F 85.6 °F 64.4 °F 51% 29.74 in 10.0 mi South 12.7 mph 17.3 mph N/A   Overcast
7:15 PM 84.2 °F 85.6 °F 64.4 °F 51% 29.74 in 10.0 mi South 10.4 mph 19.6 mph N/A   Mostly Cloudy
7:35 PM 82.4 °F 83.9 °F 64.4 °F 54% 29.75 in 10.0 mi South 9.2 mph - N/A   Clear
7:55 PM 80.6 °F 82.3 °F 64.4 °F 58% 29.75 in 10.0 mi South 9.2 mph - N/A   Scattered Clouds
8:15 PM 80.6 °F 82.3 °F 64.4 °F 58% 29.75 in 10.0 mi South 9.2 mph - N/A   Mostly Cloudy
8:35 PM 82.4 °F 83.9 °F 64.4 °F 54% 29.76 in 10.0 mi South 10.4 mph - N/A   Overcast
8:55 PM 80.6 °F 82.3 °F 64.4 °F 58% 29.76 in 10.0 mi South 9.2 mph - N/A   Mostly Cloudy
9:15 PM 80.6 °F 82.7 °F 66.2 °F 61% 29.77 in 10.0 mi South 10.4 mph - N/A   Scattered Clouds
9:35 PM 78.8 °F - 66.2 °F 65% 29.77 in 10.0 mi South 10.4 mph - N/A   Scattered Clouds
9:55 PM 78.8 °F - 64.4 °F 61% 29.77 in 10.0 mi South 11.5 mph - N/A   Scattered Clouds
10:15 PM 78.8 °F - 64.4 °F 61% 29.77 in 10.0 mi South 11.5 mph 18.4 mph N/A   Scattered Clouds
10:35 PM 78.8 °F - 64.4 °F 61% 29.77 in 10.0 mi South 12.7 mph 19.6 mph N/A   Scattered Clouds
10:55 PM 78.8 °F - 64.4 °F 61% 29.77 in 10.0 mi South 10.4 mph 18.4 mph N/A   Scattered Clouds
11:15 PM 78.8 °F - 64.4 °F 61% 29.78 in 10.0 mi South 11.5 mph 16.1 mph N/A   Scattered Clouds
11:35 PM 78.8 °F - 64.4 °F 61% 29.78 in 10.0 mi South 11.5 mph 17.3 mph N/A   Scattered Clouds
11:55 PM 78.8 °F - 64.4 °F 61% 29.78 in 10.0 mi South 12.7 mph - N/A   Scattered Clouds